Home   Weather   London   Past weeks

Flag for Canada Past Weather in London, Ontario, Canada — Yesterday and Last 2 Weeks

Now
30 °F

Ice fog.


Feels Like: 23 °F
Forecast: 31 / 37 °F
Wind: 8 mph from Southeast

Location: London Weather Station

Current Time: Jan 19, 2017 at 11:08:12 pm

Latest Report: Jan 19, 2017 at 10:00 pm


Visibility: 0 mi

Pressure: 29.98 "Hg

Humidity: 100%

Dew Point: 30 °F

Location of LondonLocation

Past Weather in London — Graph

°F

London Temperature Yesterday

Maximum temperature yesterday: 37 °F (at 2:48 pm)
Minimum temperature yesterday: 34 °F (at 1:00 am)
Average temperature yesterday: 35 °F

High & Low Weather Summary for the Past Weeks

 TemperatureHumidityPressure
High52 °F (Jan 12, 3:00 am)100% (Jan 10, 7:36 am)30.79 "Hg (Jan 10, 7:36 am)
Low3 °F (Jan 6, 8:00 am)41% (Jan 16, 2:00 pm)29.47 "Hg (Jan 10, 11:00 pm)
Average25 °F85%30.15 "Hg
* Reported Jan 4 10:00 pm — Jan 19 10:00 pm, London, Weather by CustomWeather, © 2017

Note: Actual official high and low records may vary slightly from our data, if they occured in-between our weather recording intervals... More about our weather records

Advertising

London Weather History for the Previous 24 Hours

Scroll right to see more
 ConditionsComfort  
Time TempWeatherWind HumidityBarometerVisibility
10:00 pm
Thu, Jan 19
30 °FIce fog.8 mph100%29.98 "Hg0 mi
9:00 pm30 °FIce fog.6 mph100%30.01 "Hg0 mi
8:12 pm30 °FIce fog.6 mph100%30.01 "Hg0 mi
7:00 pm30 °FIce fog.6 mph100%30.03 "Hg0 mi
6:44 pm30 °FIce fog.6 mph100%30.03 "Hg0 mi
6:00 pm30 °FIce fog.7 mph100%30.04 "Hg1 mi
5:31 pm30 °FIce fog.9 mph100%30.04 "Hg1 mi
5:00 pm32 °FIce fog.9 mph93%30.03 "Hg1 mi
4:00 pm32 °FIce fog.8 mph100%30.02 "Hg2 mi
3:40 pm32 °FIce fog.3 mph100%30.01 "Hg2 mi
3:00 pm32 °FIce fog.5 mph100%30.02 "Hg4 mi
2:30 pm32 °FIce fog.6 mph93%30.01 "Hg1 mi
2:15 pm32 °FIce fog.5 mph93%30.01 "Hg2 mi
2:00 pm32 °FIce fog.5 mph93%30.02 "Hg4 mi
1:00 pm32 °FLow clouds.8 mph93%30.03 "Hg4 mi
12:50 pm32 °FIce fog.5 mph93%30.04 "Hg3 mi
12:29 pm32 °FIce fog.5 mph100%30.05 "Hg2 mi
12:00 pm32 °FIce fog.7 mph100%30.07 "Hg1 mi
11:39 am32 °FIce fog.5 mph100%30.08 "Hg2 mi
11:00 am32 °FIce fog.3 mph100%30.10 "Hg2 mi
10:50 am32 °FIce fog.5 mph100%30.10 "Hg2 mi
10:00 am32 °FIce fog.3 mph100%30.09 "Hg2 mi
9:00 am32 °FIce fog.5 mph93%30.10 "Hg2 mi
8:00 am32 °FIce fog.8 mph93%30.08 "Hg2 mi
7:00 am32 °FIce fog.8 mph93%30.07 "Hg4 mi
6:00 am32 °FIce fog.10 mph93%30.06 "Hg4 mi
4:00 am34 °FLow clouds.9 mph93%30.05 "Hg7 mi
3:00 am34 °FLow clouds.8 mph93%30.05 "Hg7 mi
2:00 am34 °FLow clouds.12 mph93%30.05 "Hg7 mi
1:00 am34 °FLow clouds.14 mph100%30.03 "Hg7 mi
12:00 am36 °FLow clouds.12 mph93%30.02 "Hg7 mi
11:00 pm
Wed, Jan 18
36 °FLow clouds.13 mph100%30.04 "Hg7 mi
Weather by CustomWeather, © 2017

See weather overviewHow to use our weather pages